Home   Weather   Independence   Past weeks

Flag for USA Past Weather in Independence, Missouri, USA — Yesterday and Last 2 Weeks

Now
31 °F

Ice fog.


Feels Like: 26 °F
Forecast: 30 / 51 °F
Wind: 5 mph from Southwest

Location: Lee's Summit Municipal Airport

Current Time: Jan 18, 2017 at 4:28:14 am

Latest Report: Jan 18, 2017 at 3:53 am


Visibility: 0 mi

Pressure: 30.17 "Hg

Humidity: 100%

Dew Point: 31 °F

Location of IndependenceLocation

Past Weather in Independence — Graph

°F

Independence Temperature Yesterday

Maximum temperature yesterday: 39 °F (at 4:53 pm)
Minimum temperature yesterday: 32 °F (at 10:53 pm)
Average temperature yesterday: 36 °F

High & Low Weather Summary for the Past Weeks

 TemperatureHumidityPressure
High65 °F (Jan 11, 2:53 pm)100% (Jan 15, 3:35 pm)30.76 "Hg (Jan 15, 3:35 pm)
Low-1 °F (Jan 6, 7:53 am)43% (Jan 8, 7:53 pm)29.38 "Hg (Jan 10, 6:53 am)
Average28 °F75%30.21 "Hg
* Reported Jan 3 3:53 am — Jan 18 3:02 am, Independence, Weather by CustomWeather, © 2017

Note: Actual official high and low records may vary slightly from our data, if they occured in-between our weather recording intervals... More about our weather records

Advertising

Independence Weather History for the Previous 24 Hours

Scroll right to see more
 ConditionsComfort  
Time TempWeatherWind HumidityBarometerVisibility
3:02 am
Wed, Jan 18
31 °FIce fog.7 mph96%30.15 "Hg0 mi
1:53 am33 °FFog.8 mph96%30.19 "Hg6 mi
12:53 am34 °FClear.8 mph97%30.19 "Hg8 mi
11:53 pm
Tue, Jan 17
34 °FClear.10 mph92%30.19 "Hg7 mi
10:53 pm32 °FClear.7 mph96%30.19 "Hg7 mi
9:53 pm33 °FClear.8 mph92%30.18 "Hg8 mi
8:53 pm34 °FPassing clouds.8 mph92%30.19 "Hg8 mi
7:53 pm34 °FClear.6 mph92%30.19 "Hg10 mi
6:53 pm37 °FClear.No wind86%30.18 "Hg10 mi
5:53 pm38 °FOvercast.No wind86%30.16 "Hg10 mi
4:53 pm39 °FOvercast.7 mph86%30.14 "Hg10 mi
3:53 pm38 °FOvercast.10 mph90%30.15 "Hg10 mi
3:09 pm38 °FOvercast.7 mph90%30.11 "Hg10 mi
2:53 pm38 °FLow clouds.9 mph86%30.12 "Hg10 mi
1:53 pm37 °FLow clouds.10 mph89%30.12 "Hg10 mi
12:53 pm37 °FLow clouds.9 mph89%30.12 "Hg9 mi
11:53 am36 °FLow clouds.9 mph92%30.11 "Hg10 mi
10:53 am36 °FLow clouds.9 mph92%30.13 "Hg7 mi
9:53 am35 °FFog.8 mph96%30.11 "Hg5 mi
9:25 am35 °FFog.9 mph96%30.09 "Hg3 mi
8:53 am35 °FFog.8 mph92%30.10 "Hg2 mi
8:30 am34 °FFog.7 mph100%30.07 "Hg2 mi
7:53 am34 °FFog.N/A97%30.07 "Hg6 mi
6:53 am35 °FLow clouds.7 mph96%30.06 "Hg7 mi
5:53 am35 °FLow clouds.10 mph92%30.03 "Hg8 mi
4:53 am36 °FMostly cloudy.10 mphN/A30.02 "Hg4 mi
Weather by CustomWeather, © 2017

See weather overviewHow to use our weather pages